Location: Baia Mare
(47.6567°N, 23.5850°E)
Time: 00:31:41
(UTC+02:00)

ISS - Pass Details

Date: 27 February 2018
Orbit: 402 x 407 km, 51.6° (Epoch: 23 February)

Event Time Altitude Azimuth Distance (km) Brightness Sun altitude
Rises 06:31:19 0° 216° (SW) 2,311 -0.3 -7.4°
Reaches altitude 10° 06:33:33 10° 205° (SSW) 1,455 -1.2 -7.0°
Maximum altitude 06:36:25 29° 143° (SE) 768 -1.9 -6.5°
Drops below altitude 10° 06:39:19 10° 81° (E) 1,461 0.6 -6.0°
Sets 06:41:33 0° 70° (ENE) 2,323 1.3 -5.7°
